Regional Weather Roundup
Issued by NWS New Orleans/Baton Rouge, LA

Home | Current Version | Previous Version | Graphics & Text | Print | Product List | Glossary On
Versions: 1 2 3 4 5 6 7 8 9 10 11 12 13 14 15 16 17 18 19 20 21 22 23 24 25 26 27 28 29 30 31 32 33 34 35 36 37 38 39 40 41 42 43 44 45 46 47 48 49 50
742
ASUS44 KLIX 272010
RWRLIX
NEW ORLEANS REGIONAL WEATHER ROUNDUP
NATIONAL WEATHER SERVICE NEW ORLEANS LA
200 PM CST THU NOV 27 2014

NOTE: "FAIR" INDICATES FEW OR NO CLOUDS BELOW 12,000 FEET WITH NO
      SIGNIFICANT WEATHER AND/OR OBSTRUCTIONS TO VISIBILITY.
      SKY/WX - SKY CONDITION AND SIGNIFICANT WEATHER.
      TMP - AIR TEMPERATURE.     DP    - DEWPOINT TEMPERATURE.
      RH  - RELATIVE HUMIDITY.   PRES  - PRESSURE.
      HI  - HEAT INDEX.          WCI   - WIND CHILL INDEX.

*  THESE STATIONS ARE NOT NWS OR FAA STATIONS AND ARE NOT UNDER
   NWS QUALITY CONTROL.

LAZ038-040-048-061>063-065>067-069-272100-
SOUTHEAST LOUISIANA

CITY           SKY/WX    TMP DP  RH WIND       PRES   REMARKS
N.O. AUDUBON     N/A     58  33  38 MISG        N/A
N.O. INTL ARPT MOSUNNY   60  32  34 N9        30.38F
N.O. LAKEFRONT SUNNY     60  35  39 NW12      30.39F
N.O. DOWNTOWN*   N/A     57  30  35 N7        30.39S
SLIDELL        SUNNY     62  28  27 N10       30.37F
BATON ROUGE    SUNNY     61  29  29 VRB6      30.39F
BOOTHVILLE     SUNNY     57  39  51 N8        30.37F
BELLE CHASSE   SUNNY     61  30  31 N8        30.37F
BOGALUSA*        N/A     60  28  28 N10       30.40F
NEW ROADS*       N/A     59  32  35 NW9       30.41F
GONZALES*        N/A     62  30  29 N10       30.38F
HAMMOND*       SUNNY     63  25  23 N10       30.40F
HOUMA*         SUNNY     63  32  31 N10       30.36F
PORT FOURCHON* CLEAR     61  36  39 N14       30.39F

$$

MSZ070-080>082-272100-
SOUTHERN MISSISSIPPI

CITY           SKY/WX    TMP DP  RH WIND       PRES   REMARKS
MCCOMB         SUNNY     57  28  33 N14       30.40F
GULFPORT       SUNNY     60  29  30 N17       30.36F
BILOXI         SUNNY     60  30  31 VRB6      30.36F
PASCAGOULA     SUNNY     60  29  30 VRB7G22   30.35S
STENNIS ARPT*  SUNNY     61  21  21 NW12      30.37F

$$

COASTAL OBSERVATIONS
LAKE AND NEARSHORE STATIONS

STATION/POSITION TIME  TEMP    WIND        PRES    WAVE
                       AIR SEA DIR/SP/G            HT/PER
                 (UTC) (F)     (DEG/KT/KT) (MB)    (FT/S)
PASCAGOULA       2000   60     360/  9/ 14 1027.3
WAVELAND YACHT   2000   57     360/ 14/ 20 1027.4
GRAND ISLE       2000   59 59   10/  8/ 11 1028.5
SOUTHWEST PASS   2000   62                 1028.3
NEW CANAL        2000   55 55  350/  9/ 11 1029.2
SHELL BEACH      2000   56 53  330/ 10/ 12 1028.3

OFFSHORE STATIONS

STATION/POSITION TIME  TEMP    WIND        PRES    WAVE
                       AIR SEA DIR/SP/G            HT/PER
                 (UTC) (F)     (DEG/KT/KT) (MB)    (FT/S)
64 S DAUPHIN ISL 1935   58 71   10/ 17/ 23 1027.5    4/ 6

$$




USA.gov is the U.S. government's official web portal to all federal, state and local government web resources and services.